Weather in Guni

Russia / Chechen Republic     43°03′02″N   46°06′03″E
temp.,
°C
wind,
m/s
gust,
m/s
humid.,
%
clouds,
%
prec.,
mm/h
press.,
hPa
HPBL,
m
27 october, wed
wed2700:00−1sse22885 0.0 103416
03:00−1sse22813 0.0 103316
06:000se11732 0.0 103212
09:00+5nne11550 0.0 1030247
12:00+8nne22520 0.0 1027516
15:00+8n21540 0.0 1025452
18:00+4ssw11730 0.0 102612
21:00+4s11690 0.0 102514
28 october, thu
thu2800:00+4s11680 0.0 102313
03:00+3ssw11680 0.0 102411
06:00+3s11630 0.0 102410
09:00+9nne11480 0.0 1023175
12:00+11n21500 0.0 1022523
15:00+10nnw21560 0.0 1022470
18:00+6ssw21750 0.0 102311
21:00+5ssw11760 0.0 102411
29 october, fri
fri2900:00+4ssw21760 0.0 102412
03:00+4ssw21770 0.0 102411
06:00+3s217488 0.0 102512
09:00+7nnw115674 0.0 1025373
12:00+8n2158100 0.0 1024677
15:00+8n226284 0.0 1025775
18:00+5ese0080100 0.0 102724
21:00+5sse1182100 0.0 102813
30 october, sat
sat3000:00+4se0082100 0.0 102812
03:00+3se118618 0.0 102910
06:00+3sse1185100 0.0 103010
09:00+7nne116956 0.0 1029358
12:00+10n226015 0.0 1028797
15:00+10nne326560 0.0 1028739
18:00+6sw00866 0.0 103020
21:00+5ssw118710 0.0 103012
31 october, sun
sun3100:00+5s118499 0.0 102911
03:00+5se1184100 0.0 102811
06:00+5sse11855 0.0 102812
09:00+8n117263 0.0 1027222
12:00+10n2168100 0.0 1025490
15:00+10nnw1174100 0.0 1024382
18:00+7wsw1185100 0.0 102414
21:00+7sw018388 0.0 102412